Location: Krakow
(50.0212°N, 19.9423°E)
Time: 04:50:07
(UTC+01:00)

ACS3 Solar Sail - Visible Passes

Search period start: 08 December 2025 00:00
Search period end: 18 December 2025 00:00
Orbit: 889 x 1003 km, 97.3° (Epoch: 06 December)

Date Brightness Start Highest point End Pass type
(mag) Time Alt. Az. Time Alt. Az. Time Alt. Az.
08 Dec 4.0 04:40:23 10° N 04:40:27 10° NNW 04:40:27 10° NNW visible
09 Dec 4.3 03:12:33 10° N 03:12:38 10° N 03:12:38 10° N visible
10 Dec 4.2 03:28:40 10° N 03:28:46 10° N 03:28:46 10° N visible
11 Dec 4.2 03:44:46 10° N 03:44:51 10° N 03:44:51 10° N visible
12 Dec 4.1 04:00:52 10° N 04:00:53 10° N 04:00:53 10° N visible
